Weather History for KLHX - April, 2014

Change the Weather History Date:

Friday, April 25, 2014

  Actual Average Record
Temperature  
Mean Temperature 62 °F 56 °F  
Max Temperature 82 °F 71 °F 92 °F (1949)
Min Temperature 41 °F 41 °F 27 °F (1950)
Degree Days  
Heating Degree Days 3 10  
Month to date heating degree days 270 332  
Since 1 July heating degree days 4993 5080  
Cooling Degree Days 0 1  
Month to date cooling degree days 10 1  
Year to date cooling degree days 10 2  
Growing Degree Days 12 (Base 50)    
Moisture  
Dew Point 21 °F    
Average Humidity 27    
Maximum Humidity 49    
Minimum Humidity 5    
Precipitation  
Precipitation 0.00 in 0.05 in 0.61 in (1999)
Month to date precipitation 0.63 1.02  
Year to date precipitation 1.37 2.48  
Sea Level Pressure  
Sea Level Pressure 29.70 in    
Wind  
Wind Speed 12 mph (South)    
Max Wind Speed 25 mph    
Max Gust Speed 30 mph    
Visibility 10 miles    
Events      
T = Trace of Precipitation, MM = Missing Value Source: NWS Daily Summary

Daily Weather History Graph

Daily Weather History Graph

Search for Another Location

Airport or City:

Trip Planner

Search our weather history database for the weather conditions in past years. The results will help you decide how hot, cold, wet, or windy it might be!

Date:

Astronomy

Apr. 25, 2014 Rise Set
Actual Time 6:05 AM MDT 7:39 PM MDT
Civil Twilight 5:37 AM MDT 8:07 PM MDT
Nautical Twilight 5:03 AM MDT 8:41 PM MDT
Astronomical Twilight 4:28 AM MDT 9:16 PM MDT
Moon 3:50 AM MDT (4/25) 4:07 PM MDT (4/25)
Length of Visible Light 14h 30m
Length of Day
13h 34m
Waning Crescent, 15% of the Moon is Illuminated
Apr 25
Waning Crescent
Apr 29
New
May 6
First Quarter
May 14
Full
May 21
Last Quarter

Hourly Weather History & Observations

Time (MDT) Temp. Windchill Dew Point Humidity Pressure Visibility Wind Dir Wind Speed Gust Speed Precip Events Conditions
12:53 AM 48.0 °F - 26.1 °F 42% 29.78 in 10.0 mi SSE 5.8 mph - N/A   Clear
1:53 AM 44.1 °F 37.7 °F 26.1 °F 49% 29.79 in 10.0 mi West 12.7 mph - N/A   Clear
2:53 AM 42.1 °F 34.9 °F 24.1 °F 49% 29.80 in 10.0 mi West 13.8 mph - N/A   Clear
3:53 AM 43.0 °F 36.4 °F 23.0 °F 45% 29.81 in 10.0 mi West 12.7 mph - N/A   Clear
4:53 AM 43.0 °F 36.4 °F 23.0 °F 45% 29.82 in 10.0 mi SW 12.7 mph - N/A   Clear
5:53 AM 43.0 °F 36.0 °F 24.1 °F 47% 29.83 in 10.0 mi West 13.8 mph - N/A   Clear
6:53 AM 45.0 °F 39.7 °F 25.0 °F 46% 29.84 in 10.0 mi West 10.4 mph - N/A   Clear
7:53 AM 50.0 °F - 27.0 °F 41% 29.85 in 10.0 mi WSW 9.2 mph - N/A   Clear
8:53 AM 55.9 °F - 26.1 °F 32% 29.83 in 10.0 mi WNW 8.1 mph - N/A   Clear
9:53 AM 62.1 °F - 27.0 °F 26% 29.82 in 10.0 mi SSW 4.6 mph - N/A   Clear
10:53 AM 64.9 °F - 28.0 °F 25% 29.81 in 10.0 mi South 8.1 mph - N/A   Clear
11:53 AM 70.0 °F - 19.9 °F 15% 29.78 in 10.0 mi SE 6.9 mph - N/A   Clear
12:53 PM 73.0 °F - 19.0 °F 13% 29.73 in 10.0 mi ESE 11.5 mph - N/A   Clear
1:53 PM 75.9 °F - 18.0 °F 11% 29.71 in 10.0 mi East 12.7 mph 18.4 mph N/A   Clear
2:53 PM 79.0 °F - 12.9 °F 8% 29.66 in 10.0 mi South 10.4 mph 23.0 mph N/A   Clear
3:53 PM 81.0 °F - 12.9 °F 8% 29.61 in 10.0 mi ESE 16.1 mph 24.2 mph N/A   Clear
4:53 PM 82.0 °F - 7.0 °F 6% 29.57 in 10.0 mi SE 13.8 mph - N/A   Clear
5:53 PM 79.0 °F - 12.0 °F 8% 29.55 in 10.0 mi ESE 24.2 mph 29.9 mph N/A   Clear
6:53 PM 75.0 °F - 15.1 °F 10% 29.54 in 10.0 mi ESE 15.0 mph - N/A   Clear
7:53 PM 70.0 °F - 18.0 °F 14% 29.54 in 10.0 mi East 16.1 mph - N/A   Clear
8:53 PM 66.9 °F - 19.9 °F 17% 29.53 in 10.0 mi East 12.7 mph - N/A   Clear
9:53 PM 62.1 °F - 23.0 °F 22% 29.52 in 10.0 mi East 10.4 mph - N/A   Clear
10:53 PM 60.1 °F - 25.0 °F 26% 29.50 in 10.0 mi SE 6.9 mph - N/A   Clear
11:53 PM 63.0 °F - 21.0 °F 20% 29.47 in 10.0 mi SSW 6.9 mph - N/A   Clear